Leesburg, VA

6:06 PM EDT on July 23, 2019 (GMT -0400)
Leesburg Executive

Weather History for KJYO - April, 2019

Change the Weather History Date:

Wednesday, April 17, 2019

  Actual Average (WUND) Record (WUND)
Temperature  
Mean Temperature 60 °F -  
Max Temperature 71 °F - - (-1)
Min Temperature 48 °F - - (-1)
Degree Days  
Heating Degree Days 6    
Growing Degree Days 10 (Base 50)    
Moisture  
Dew Point 46 °F    
Average Humidity 63    
Maximum Humidity 87    
Minimum Humidity 46    
Precipitation  
Precipitation 0.00 in - - ()
Sea Level Pressure  
Sea Level Pressure 30.07 in    
Wind  
Wind Speed 5 mph (East)    
Max Wind Speed 12 mph    
Max Gust Speed 21 mph    
Visibility 10 miles    
Events      
Averages and records for this station are not official NWS values.
T = Trace of Precipitation, MM = Missing Value Source: NWS Daily Summary

Daily Weather History Graph

Daily Weather History Graph

Search for Another Location

Airport or City:

Astronomy

Apr. 17, 2019 Rise Set
Actual Time 6:31 AM EDT 7:49 PM EDT
Civil Twilight 6:03 AM EDT 8:17 PM EDT
Nautical Twilight 5:30 AM EDT 8:50 PM EDT
Astronomical Twilight 4:55 AM EDT 9:25 PM EDT
Moon 5:53 PM EDT (4/17) 5:46 AM EDT (4/17)
Length of Visible Light 14h 13m
Length of Day
13h 18m
Waxing Gibbous, 96% of the Moon is Illuminated
Apr 17
Waxing Gibbous
Apr 19
Full
Apr 26
Last Quarter
May 4
New
May 11
First Quarter

Hourly Weather History & Observations

Time (EDT) Temp. Dew Point Humidity Pressure Visibility Wind Dir Wind Speed Gust Speed Precip Events Conditions
12:15 AM 53.6 °F 42.8 °F 67% 30.02 in 10.0 mi Calm Calm - N/A   Clear
12:35 AM 51.8 °F 44.6 °F 76% 30.01 in 10.0 mi SSW 4.6 mph - N/A   Clear
12:55 AM 50.0 °F 44.6 °F 82% 30.00 in 10.0 mi SW 4.6 mph - N/A   Clear
1:15 AM 51.8 °F 44.6 °F 76% 30.01 in 10.0 mi Calm Calm - N/A   Clear
1:35 AM 53.6 °F 44.6 °F 72% 30.01 in 10.0 mi South 3.5 mph - N/A   Clear
1:55 AM 53.6 °F 42.8 °F 67% 30.00 in 10.0 mi Calm Calm - N/A   Clear
2:15 AM 53.6 °F 42.8 °F 67% 30.00 in 10.0 mi Calm Calm - N/A   Clear
2:35 AM 51.8 °F 42.8 °F 71% 29.99 in 10.0 mi SSE 4.6 mph - N/A   Clear
2:55 AM 48.2 °F 44.6 °F 87% 30.00 in 10.0 mi Calm Calm - N/A   Clear
3:15 AM 48.2 °F 44.6 °F 87% 30.00 in 10.0 mi Calm Calm - N/A   Clear
3:35 AM 48.2 °F 44.6 °F 87% 30.00 in 10.0 mi SW 3.5 mph - N/A   Mostly Cloudy
3:55 AM 50.0 °F 44.6 °F 82% 30.01 in 10.0 mi Calm Calm - N/A   Overcast
4:15 AM 53.6 °F 44.6 °F 72% 30.01 in 10.0 mi Calm Calm - N/A   Overcast
4:35 AM 53.6 °F 44.6 °F 72% 30.02 in 10.0 mi Calm Calm - N/A   Overcast
4:55 AM 53.6 °F 46.4 °F 77% 30.02 in 10.0 mi Calm Calm - N/A   Overcast
5:15 AM 51.8 °F 46.4 °F 82% 30.03 in 10.0 mi NNE 5.8 mph - N/A   Overcast
5:35 AM 53.6 °F 44.6 °F 72% 30.04 in 10.0 mi NNE 9.2 mph - N/A   Overcast
5:55 AM 51.8 °F 44.6 °F 76% 30.05 in 10.0 mi NNE 9.2 mph 16.1 mph N/A   Overcast
6:15 AM 51.8 °F 42.8 °F 71% 30.06 in 10.0 mi NNE 8.1 mph - N/A   Scattered Clouds
6:35 AM 51.8 °F 42.8 °F 71% 30.07 in 10.0 mi NNE 10.4 mph - N/A   Scattered Clouds
6:55 AM 51.8 °F 42.8 °F 71% 30.07 in 10.0 mi NE 6.9 mph - N/A   Overcast
7:15 AM 51.8 °F 42.8 °F 71% 30.08 in 10.0 mi NE 8.1 mph - N/A   Overcast
7:35 AM 53.6 °F 42.8 °F 67% 30.09 in 10.0 mi NE 5.8 mph - N/A   Overcast
7:55 AM 53.6 °F 42.8 °F 67% 30.10 in 10.0 mi NNE 5.8 mph - N/A   Overcast
8:15 AM 53.6 °F 42.8 °F 67% 30.10 in 10.0 mi NE 6.9 mph - N/A   Overcast
8:35 AM 53.6 °F 42.8 °F 67% 30.10 in 10.0 mi NE 4.6 mph - N/A   Overcast
8:55 AM 53.6 °F 44.6 °F 72% 30.12 in 10.0 mi NNE 5.8 mph - N/A   Overcast
9:15 AM 55.4 °F 44.6 °F 67% 30.12 in 10.0 mi NE 4.6 mph - N/A   Overcast
9:35 AM 57.2 °F 44.6 °F 63% 30.12 in 10.0 mi NE 5.8 mph - N/A   Overcast
9:55 AM 59.0 °F 46.4 °F 63% 30.12 in 10.0 mi NE 3.5 mph - N/A   Overcast
10:15 AM 59.0 °F 46.4 °F 63% 30.12 in 10.0 mi NNE 4.6 mph - N/A   Overcast
10:35 AM 59.0 °F 46.4 °F 63% 30.12 in 10.0 mi NNE 4.6 mph - N/A   Overcast
10:55 AM 60.8 °F 46.4 °F 59% 30.12 in 10.0 mi NNE 5.8 mph - N/A   Scattered Clouds
11:15 AM 60.8 °F 46.4 °F 59% 30.12 in 10.0 mi NNE 4.6 mph - N/A   Clear
11:35 AM 62.6 °F 48.2 °F 59% 30.11 in 10.0 mi NNE 5.8 mph - N/A   Scattered Clouds
11:55 AM 64.4 °F 50.0 °F 59% 30.11 in 10.0 mi East 5.8 mph - N/A   Scattered Clouds
12:15 PM 64.4 °F 48.2 °F 56% 30.11 in 7.0 mi NE 5.8 mph - N/A   Scattered Clouds
12:35 PM 66.2 °F 50.0 °F 56% 30.11 in 10.0 mi East 5.8 mph - N/A   Mostly Cloudy
12:55 PM 66.2 °F 48.2 °F 52% 30.10 in 10.0 mi Calm Calm - N/A   Mostly Cloudy
1:15 PM 68.0 °F 48.2 °F 49% 30.10 in 10.0 mi Calm Calm - N/A   Mostly Cloudy
1:35 PM 69.8 °F 48.2 °F 46% 30.10 in 10.0 mi NE 5.8 mph - N/A   Scattered Clouds
1:55 PM 69.8 °F 50.0 °F 49% 30.10 in 10.0 mi ESE 3.5 mph - N/A   Clear
2:15 PM 69.8 °F 50.0 °F 49% 30.09 in 7.0 mi NE 5.8 mph - N/A   Scattered Clouds
2:35 PM 71.6 °F 50.0 °F 46% 30.09 in 10.0 mi ENE 5.8 mph - N/A   Scattered Clouds
2:55 PM 71.6 °F 50.0 °F 46% 30.08 in 10.0 mi East 6.9 mph - N/A   Clear
3:15 PM 71.6 °F 50.0 °F 46% 30.08 in 10.0 mi ENE 10.4 mph - N/A   Clear
3:35 PM 71.6 °F 50.0 °F 46% 30.07 in 10.0 mi East 9.2 mph - N/A   Clear
3:55 PM 71.6 °F 50.0 °F 46% 30.06 in 10.0 mi East 11.5 mph 17.3 mph N/A   Clear
4:15 PM 69.8 °F 50.0 °F 49% 30.06 in 10.0 mi ESE 11.5 mph 20.7 mph N/A   Clear
4:35 PM 69.8 °F 50.0 °F 49% 30.05 in 10.0 mi ENE 9.2 mph - N/A   Clear
4:55 PM 69.8 °F 51.8 °F 53% 30.05 in 10.0 mi East 11.5 mph 16.1 mph N/A   Clear
5:15 PM 69.8 °F 50.0 °F 49% 30.04 in 10.0 mi East 6.9 mph 19.6 mph N/A   Clear
5:35 PM 69.8 °F 50.0 °F 49% 30.04 in 10.0 mi ESE 8.1 mph 18.4 mph N/A   Clear
5:55 PM 68.0 °F 50.0 °F 52% 30.05 in 10.0 mi ESE 9.2 mph 17.3 mph N/A   Clear
6:15 PM 68.0 °F 50.0 °F 52% 30.05 in 10.0 mi East 10.4 mph 16.1 mph N/A   Clear
6:35 PM 66.2 °F 50.0 °F 56% 30.05 in 10.0 mi ESE 6.9 mph 16.1 mph N/A   Clear
6:55 PM 66.2 °F 50.0 °F 56% 30.06 in 10.0 mi ESE 9.2 mph - N/A   Clear
7:15 PM 66.2 °F 48.2 °F 52% 30.07 in 10.0 mi ESE 10.4 mph 16.1 mph N/A   Clear
7:35 PM 64.4 °F 48.2 °F 56% 30.07 in 10.0 mi ESE 5.8 mph - N/A   Clear
7:55 PM 64.4 °F 46.4 °F 52% 30.07 in 10.0 mi ESE 8.1 mph 17.3 mph N/A   Clear
8:15 PM 62.6 °F 46.4 °F 55% 30.07 in 10.0 mi ESE 9.2 mph - N/A   Clear
8:35 PM 62.6 °F 46.4 °F 55% 30.08 in 10.0 mi East 3.5 mph - N/A   Clear
8:55 PM 62.6 °F 46.4 °F 55% 30.08 in 10.0 mi ESE 8.1 mph 17.3 mph N/A   Clear
9:15 PM 60.8 °F 46.4 °F 59% 30.09 in 10.0 mi ESE 9.2 mph - N/A   Clear
9:35 PM 60.8 °F 46.4 °F 59% 30.10 in 10.0 mi ESE 11.5 mph 19.6 mph N/A   Clear
9:55 PM 59.0 °F 46.4 °F 63% 30.10 in 10.0 mi ESE 11.5 mph 17.3 mph N/A   Clear
10:15 PM 59.0 °F 46.4 °F 63% 30.10 in 10.0 mi ESE 10.4 mph 19.6 mph N/A   Clear
10:35 PM 57.2 °F 44.6 °F 63% 30.11 in 10.0 mi ESE 10.4 mph 17.3 mph N/A   Clear
10:55 PM 57.2 °F 44.6 °F 63% 30.10 in 10.0 mi East 8.1 mph - N/A   Clear
11:15 PM 55.4 °F 44.6 °F 67% 30.11 in 10.0 mi East 8.1 mph - N/A   Clear
11:35 PM 55.4 °F 46.4 °F 72% 30.11 in 10.0 mi East 6.9 mph - N/A   Clear
11:55 PM 55.4 °F 46.4 °F 72% 30.11 in 10.0 mi ESE 8.1 mph - N/A   Clear